Alexandria Esle, LA

9:51 PM CST on December 14, 2017 (GMT -0600)
Alexandria Esler Regional

Weather History for KESF - May, 2014

Change the Weather History Date:

Thursday, May 1, 2014

  Actual Average Record
Temperature  
Mean Temperature 58 °F -  
Max Temperature 75 °F 80 °F 90 °F (2012)
Min Temperature 44 °F 59 °F 39 °F (2005)
Degree Days  
Heating Degree Days 6    
Growing Degree Days 8 (Base 50)    
Moisture  
Dew Point 43 °F    
Average Humidity 64    
Maximum Humidity 93    
Minimum Humidity 23    
Precipitation  
Precipitation 0.00 in - - ()
Sea Level Pressure  
Sea Level Pressure 30.09 in    
Wind  
Wind Speed 2 mph (WNW)    
Max Wind Speed 10 mph    
Max Gust Speed 20 mph    
Visibility 10 miles    
Events      
Averages and records for this station are not official NWS values.
T = Trace of Precipitation, MM = Missing Value Source: NWS Daily Summary

Daily Weather History Graph

Daily Weather History Graph

Search for Another Location

Airport or City:

Trip Planner

Search our weather history database for the weather conditions in past years. The results will help you decide how hot, cold, wet, or windy it might be!

Date:

Astronomy

May. 01, 2014 Rise Set
Actual Time 6:24 AM CDT 7:48 PM CDT
Civil Twilight 5:58 AM CDT 8:14 PM CDT
Nautical Twilight 5:27 AM CDT 8:45 PM CDT
Astronomical Twilight 4:55 AM CDT 9:17 PM CDT
Moon 8:15 AM CDT (5/1) 10:18 PM CDT (5/1)
Length of Visible Light 14h 16m
Length of Day
13h 24m
Waxing Crescent, 7% of the Moon is Illuminated
May 1
Waxing Crescent
May 6
First Quarter
May 14
Full
May 21
Last Quarter
May 28
New

Hourly Weather History & Observations

Time (CDT) Temp. Dew Point Humidity Pressure Visibility Wind Dir Wind Speed Gust Speed Precip Events Conditions
12:53 AM 46.9 °F 44.1 °F 90% 30.13 in - Calm Calm - N/A   Clear
1:53 AM 46.0 °F 44.1 °F 93% 30.13 in - Calm Calm - N/A   Clear
2:53 AM 46.0 °F 44.1 °F 93% 30.13 in - Calm Calm - N/A   Clear
3:53 AM 45.0 °F 42.1 °F 90% 30.12 in - Calm Calm - N/A   Clear
4:53 AM 45.0 °F 42.1 °F 90% 30.12 in - Calm Calm - N/A   Clear
5:53 AM 44.1 °F 42.1 °F 93% 30.12 in - Calm Calm - N/A   Clear
6:53 AM 45.0 °F 43.0 °F 93% 30.13 in - Calm Calm - N/A   Clear
7:53 AM 48.9 °F 45.0 °F 86% 30.13 in - Calm Calm - N/A   Clear
8:53 AM 57.9 °F 48.9 °F 72% 30.14 in - West 4.6 mph - N/A   Clear
9:53 AM 64.0 °F 45.0 °F 50% 30.14 in - SW 5.8 mph - N/A   Clear
10:53 AM 69.1 °F 34.0 °F 27% 30.14 in - NW 9.2 mph 16.1 mph N/A   Clear
11:53 AM 70.0 °F 35.1 °F 28% 30.13 in - NW 8.1 mph - N/A   Clear
12:53 PM 72.0 °F 36.0 °F 27% 30.10 in 10.0 mi WNW 9.2 mph 19.6 mph N/A   Clear
1:53 PM 73.0 °F 36.0 °F 26% 30.06 in 10.0 mi WNW 9.2 mph - N/A   Clear
2:53 PM 73.9 °F 34.0 °F 23% 30.04 in 10.0 mi NW 10.4 mph - N/A   Clear
3:53 PM 72.0 °F 36.0 °F 27% 30.03 in 10.0 mi West 8.1 mph - N/A   Clear
4:53 PM 71.1 °F 39.0 °F 31% 30.02 in 10.0 mi West 5.8 mph - N/A   Clear
5:53 PM 70.0 °F 39.9 °F 33% 30.03 in 10.0 mi West 5.8 mph - N/A   Clear
6:53 PM 64.9 °F 48.0 °F 54% 30.01 in 10.0 mi Calm Calm - N/A   Clear
7:53 PM 61.0 °F 50.0 °F 67% 30.01 in 10.0 mi Calm Calm - N/A   Clear
8:53 PM 57.0 °F 51.1 °F 81% 30.04 in 10.0 mi Calm Calm - N/A   Clear
9:53 PM 55.0 °F 48.9 °F 80% 30.05 in 10.0 mi Calm Calm - N/A   Clear
10:53 PM 55.9 °F 52.0 °F 87% 30.05 in 10.0 mi Calm Calm - N/A   Clear
11:53 PM 55.0 °F 51.1 °F 86% 30.05 in 10.0 mi Calm Calm - N/A   Clear